Powrót do katalogu

ATLAS 5 CENTAUR DEB

AktywnyHEO
NORAD 44682·DEBRIS·🇺🇸 United States

Wystrzelony Oct 17, 2018 z Cape Canaveral Space Force Station

Loading…

Następne Przeloty (najbliższe 24 godziny)

TLE

Starzejące sięSource: Space-Track

Epoka: Aug 28, 2026, 11:32 UTC

1 44682U 18079AU  26240.48081970 -.00000157  00000-0  00000-0 0  9994
2 44682  13.4665  30.0624 4639360 323.6264  12.2258  1.81923697 48179

Śledź ATLAS 5 CENTAUR DEB w czasie rzeczywistym z AllMySat

Download on the App Store